{"data":{"norad_id":58368,"epoch":"2026-09-20T11:09:28.957536Z","epoch_age_seconds":146627,"freshness":"FRESH","line1":"1 58368U 23177T   26263.46491849  .00000845  00000+0  40235-4 0  9998","line2":"2 58368  43.0024 330.7981 0001391 271.6087  88.4605 15.27581034158013","mean_motion":15.27581034,"eccentricity":0.0001391,"inclination_deg":43.0024,"raan_deg":330.7981,"arg_perigee_deg":271.6087,"mean_anomaly_deg":88.4605,"bstar":4.0235e-5,"rev_number":15801,"period_min":94.266684905699,"perigee_km":482.09160931814,"apogee_km":484.0003904287,"semimajor_km":6861.1829998734,"source":"CELESTRAK","updated_at":"2026-09-21T09:00:33.863112Z"}}